WX2DX-2 Weather Reports


Display with metric or nautical units.
time (UTC)temp
F
wind
direction
speed
MPH
gust
MPH
rain 1hr
in
rain 24hr
in
rain mn
in
humidity
%
barometer
mb
20260904014526 75 259 4.0 21.0 0.00 3.49 3.49 87 1015.7
20260904013026 76 261 4.0 12.0 0.00 3.49 3.49 91 1015.5
20260904011553 75 312 4.0 10.0 0.00 3.49 3.49 93 1015.1
20260904010028 75 236 0.0 5.0 0.01 3.49 3.49 92 1014.8
20260904004524 75 261 2.0 5.0 0.01 3.49 3.49 92 1014.4
20260904003023 76 257 0.0 1.0 0.02 3.49 3.49 91 1014.6
20260904001523 76 248 1.0 4.0 0.03 3.49 3.49 90 1014.9
20260904000036 76 288 4.0 9.0 0.02 3.48 3.48 90 1015.3
20260903234536 77 195 3.0 7.0 0.02 3.48 3.48 89 1015.0
20260903233022 78 290 3.0 9.0 0.01 3.47 3.47 87 1014.9
20260903231522 79 248 2.0 7.0 0.00 3.46 3.46 83 1014.3
20260903230031 79 275 2.0 9.0 0.00 3.46 3.46 82 1014.5
20260903224520 80 275 3.0 8.0 0.00 3.46 3.46 80 1014.5
20260903223020 80 232 3.0 9.0 0.00 3.46 3.46 80 1014.3
20260903221520 81 282 2.0 9.0 0.00 3.46 3.46 81 1014.4
20260903220019 81 307 2.0 7.0 0.00 3.46 3.46 81 1014.1
20260903214523 82 279 1.0 4.0 0.00 3.46 3.46 80 1013.8
20260903213029 82 246 4.0 7.0 0.00 3.46 3.46 78 1013.6
20260903211519 83 244 2.0 6.0 0.00 3.46 3.46 78 1013.6
20260903210015 83 250 5.0 10.0 0.00 3.46 3.46 77 1013.7
20260903204516 85 229 4.0 9.0 0.00 3.46 3.46 74 1013.7
20260903203026 84 248 3.0 10.0 0.00 3.46 3.46 74 1013.2
20260903201511 86 207 3.0 10.0 0.00 3.46 3.46 72 1013.5
20260903200009 86 225 4.0 11.0 0.00 3.46 3.46 70 1013.7
20260903194506 86 241 5.0 10.0 0.00 3.46 3.46 70 1013.9
20260903193009 86 227 4.0 10.0 0.00 3.46 3.46 69 1014.1
20260903191503 87 202 5.0 9.0 0.00 3.46 3.46 67 1014.3
20260903190100 85 266 3.0 9.0 0.00 3.46 3.46 70 1014.4
20260903184558 84 235 4.0 10.0 0.00 3.46 3.46 69 1014.7
20260903183057 86 261 3.0 8.0 0.00 3.46 3.46 69 1014.7
20260903181552 84 222 5.0 11.0 0.00 3.46 3.46 69 1014.9
20260903180101 85 239 4.0 10.0 0.00 3.46 3.46 68 1015.2
20260903174548 85 251 4.0 12.0 0.00 3.46 3.46 69 1015.3
20260903173044 84 263 7.0 11.0 0.00 3.46 3.46 70 1015.5
20260903171556 83 226 4.0 12.0 0.00 3.46 3.46 72 1015.7
20260903170037 82 266 4.0 15.0 0.00 3.46 3.46 74 1015.8
20260903164536 82 227 8.0 15.0 0.00 3.46 3.46 73 1015.9
20260903163030 81 252 5.0 12.0 0.00 3.46 3.46 75 1016.2
20260903161529 80 311 5.0 13.0 0.00 3.46 3.46 77 1016.5
20260903160031 78 244 7.0 15.0 0.00 3.46 3.46 77 1016.6
20260903154523 77 199 6.0 12.0 0.00 3.50 3.46 84 1016.9
20260903153015 76 238 7.0 12.0 0.00 3.50 3.46 85 1017.1
20260903151511 74 200 5.0 11.0 0.00 3.50 3.46 89 1017.2
20260903150011 73 193 5.0 10.0 0.00 3.50 3.46 90 1017.0
20260903144512 72 182 6.0 12.0 0.00 3.99 3.46 92 1017.1
20260903143100 71 215 5.0 12.0 0.00 3.99 3.46 92 1016.9
20260903141601 70 215 4.0 8.0 0.01 3.99 3.46 93 1016.6
20260903140100 69 242 3.0 10.0 0.03 3.99 3.46 94 1016.6
20260903134557 68 257 3.0 9.0 0.08 3.99 3.46 95 1017.4
20260903133059 67 209 7.0 13.0 0.10 3.99 3.46 95 1017.5
20260903131552 67 202 5.0 11.0 0.09 3.98 3.45 94 1018.4
20260903130051 67 346 3.0 14.0 0.07 3.96 3.43 95 1018.2
20260903124604 67 186 1.0 5.0 0.02 3.91 3.38 95 1019.0
20260903123049 66 269 3.0 21.0 0.00 3.89 3.36 96 1020.0
20260903121547 66 278 3.0 10.0 0.00 3.89 3.36 96 1018.3
20260903120057 67 250 1.0 8.0 0.00 3.89 3.36 96 1017.8
20260903114546 66 234 3.0 8.0 0.00 3.89 3.36 96 1017.5
20260903113120 66 231 1.0 5.0 0.00 3.89 3.36 96 1017.7
20260903111545 66 256 2.0 8.0 0.00 3.89 3.36 96 1017.5
20260903110041 66 219 4.0 10.0 0.00 3.89 3.36 96 1017.1
20260903104554 66 215 4.0 10.0 0.00 3.89 3.36 96 1016.9
20260903103038 66 213 4.0 9.0 0.00 3.89 3.36 96 1016.8
20260903101536 66 225 5.0 11.0 0.01 3.89 3.36 96 1016.6
20260903100039 66 208 3.0 6.0 0.03 3.89 3.36 96 1016.5
20260903094546 66 252 1.0 4.0 0.17 3.89 3.36 96 1016.5
20260903093034 67 132 0.0 5.0 0.19 3.89 3.36 96 1016.6
20260903091544 67 178 2.0 4.0 0.19 3.88 3.35 96 1017.9
20260903090031 67 236 0.0 5.0 0.18 3.85 3.32 96 1018.4
20260903084528 67 229 0.0 2.0 0.12 3.72 3.19 96 1018.9
20260903083027 67 265 0.0 2.0 0.49 3.70 3.17 96 1018.5
20260903081527 67 146 2.0 7.0 0.60 3.69 3.16 96 1018.1
20260903080026 67 171 3.0 7.0 0.57 3.67 3.14 96 1018.5
20260903074523 68 141 2.0 4.0 0.50 3.59 3.06 96 1017.9
20260903073031 68 116 1.0 5.0 0.44 3.19 2.66 96 1018.5
20260903071527 68 342 3.0 9.0 0.92 3.09 2.56 96 1017.2
20260903070022 68 276 3.0 14.0 1.10 3.09 2.56 96 1017.8
20260903064518 68 164 4.0 6.0 1.60 3.09 2.56 95 1016.7
20260903063204 68 92 6.0 10.0 2.23 2.79 2.25 96 1018.5
20260903061515 68 98 0.0 10.0 1.62 2.17 1.64 95 1017.0
20260903060012 69 66 4.0 9.0 1.44 1.99 1.46 95 1017.1
20260903054509 69 26 2.0 12.0 0.88 1.42 0.89 95 1018.3
20260903053010 70 276 2.0 7.0 0.02 0.55 0.02 95 1017.8
20260903051504 70 68 2.0 4.0 0.02 0.55 0.02 94 1016.5
20260903050003 70 32 1.0 3.0 0.02 0.55 0.02 94 1016.4
20260903044501 70 39 1.0 2.0 0.01 0.54 0.01 93 1016.1
20260903043205 70 76 0.0 2.0 0.00 0.53 0.00 92 1016.4
20260903041600 71 5 0.0 3.0 0.00 0.53 0.00 92 1017.0
20260903040053 71 46 1.0 4.0 0.00 0.53 0.00 92 1016.5
20260903034553 72 11 2.0 9.0 0.00 0.53 0.53 91 1016.7
20260903033054 73 72 4.0 10.0 0.00 0.53 0.53 91 1017.0
20260903031557 73 82 3.0 6.0 0.00 0.53 0.53 92 1017.1
20260903030053 73 32 2.0 5.0 0.00 0.53 0.53 92 1017.6
20260903024551 73 237 0.0 1.0 0.00 0.53 0.53 92 1016.7
20260903023050 73 232 1.0 3.0 0.00 0.53 0.53 91 1016.1
20260903021550 74 238 1.0 4.0 0.00 0.53 0.53 92 1016.0
20260903020050 74 238 3.0 5.0 0.00 0.53 0.53 93 1015.7